Starlink 35888

operational
NORAD ID: 67190 Int'l Des: 2025-303 Owner: SPXS Country: US Constellation: starlink
LEOCIRCULAR

Starlink 35888について

説明を読み込み中...

リアルタイム位置

3D地球を読み込み中...

次回通過

高度履歴

Altitude vs Time

uPlot chart will show altitude changes over time

軌道要素

1 67190C 25303AD 25352.76645833 .00704910 00000+0 10289-2 0 3520
2 67190 43.0050 61.7894 0007466 282.3939 260.7875 16.03402666 11
Epoch: Dec 18, 2025 • Age: 67 hours

現在のステータス

高度 262.5 km
速度 7.75 km/s
衛星直下点 41.40°N, 100.78°E
打ち上げ日 Dec 17, 2025
運用期間 3 days
タイプ internet

技術仕様

分類 Payload
質量 575.00 kg
乾燥質量 530.00 kg
総質量 575.00 kg
長さ 0.30 m
直径 4.10 m
スパン 29.00 m
形状 Box + pan
製造者 SPXS
バスタイプ Starlink V2MO
フェーズステータス In Orbit
所有者/国 SPXS/US

大規模コンステレーション

Loading constellations...